TimeMDT,TemperatureF,Dew PointF,Humidity,Sea Level PressureIn,VisibilityMPH,Wind Direction,Wind SpeedMPH,Gust SpeedMPH,PrecipitationIn,Events,Conditions,WindDirDegrees,DateUTC
12:53 AM,19.0,14.0,81,29.95,10.0,East,9.2,-,N/A,,Overcast,90,2013-03-17 06:53:00
1:53 AM,19.9,14.0,78,29.89,7.0,East,12.7,-,N/A,,Overcast,90,2013-03-17 07:53:00
2:49 AM,17.6,12.2,79,29.74,9.0,ENE,10.4,-,N/A,,Scattered Clouds,70,2013-03-17 08:49:00
2:53 AM,17.1,12.9,84,29.85,9.0,ENE,10.4,-,N/A,,Scattered Clouds,70,2013-03-17 08:53:00
3:53 AM,17.1,12.0,81,29.79,10.0,East,13.8,-,N/A,,Overcast,80,2013-03-17 09:53:00
4:13 AM,17.6,12.2,79,29.65,2.0,East,15.0,-,0.00,Snow,Light Snow,80,2013-03-17 10:13:00
4:22 AM,17.6,12.2,79,29.64,6.0,ENE,15.0,-,0.00,Snow,Light Snow,70,2013-03-17 10:22:00
4:53 AM,18.0,14.0,84,29.74,9.0,ENE,10.4,-,0.00,,Overcast,70,2013-03-17 10:53:00
5:23 AM,19.4,14.0,80,29.61,9.0,ENE,11.5,-,N/A,,Overcast,60,2013-03-17 11:23:00
5:53 AM,19.9,15.1,81,29.69,8.0,ENE,15.0,-,N/A,,Overcast,70,2013-03-17 11:53:00
6:13 AM,21.2,15.8,80,29.58,7.0,ENE,13.8,-,N/A,,Overcast,70,2013-03-17 12:13:00
6:53 AM,23.0,18.0,81,29.64,7.0,East,13.8,-,N/A,,Overcast,80,2013-03-17 12:53:00
7:28 AM,24.8,19.4,80,29.55,7.0,NE,6.9,-,N/A,,Overcast,50,2013-03-17 13:28:00
7:53 AM,25.0,21.0,85,29.63,5.0,NE,9.2,-,N/A,,Overcast,50,2013-03-17 13:53:00
8:06 AM,24.8,21.2,86,29.53,1.8,ENE,10.4,-,0.00,Snow,Light Snow,60,2013-03-17 14:06:00
8:18 AM,24.8,21.2,86,29.52,1.0,ENE,12.7,-,0.00,Snow,Light Snow,60,2013-03-17 14:18:00
8:22 AM,24.8,21.2,86,29.52,1.2,ENE,11.5,-,0.00,Snow,Light Snow,60,2013-03-17 14:22:00
8:35 AM,24.8,21.2,86,29.50,2.0,ENE,12.7,-,0.00,Snow,Light Snow,60,2013-03-17 14:35:00
8:42 AM,26.6,21.2,80,29.50,1.5,ENE,11.5,-,0.00,Snow,Light Snow,70,2013-03-17 14:42:00
8:51 AM,26.6,21.2,80,29.50,2.0,ENE,12.7,-,0.00,Snow,Light Snow,70,2013-03-17 14:51:00
8:53 AM,26.1,21.9,84,29.60,1.5,ENE,11.5,-,0.00,Snow,Light Snow,70,2013-03-17 14:53:00
8:57 AM,26.6,21.2,80,29.50,0.8,ENE,12.7,-,0.00,Snow,Light Snow,70,2013-03-17 14:57:00
9:19 AM,26.6,23.0,86,29.49,0.2,ENE,11.5,-,0.01,Fog-Snow,Heavy Snow,60,2013-03-17 15:19:00
9:26 AM,26.6,23.0,86,29.49,0.2,ENE,13.8,-,0.01,Fog-Snow,Snow,60,2013-03-17 15:26:00
9:36 AM,26.6,23.0,86,29.49,0.2,ENE,12.7,-,0.02,Fog-Snow,Snow,60,2013-03-17 15:36:00
9:53 AM,26.1,23.0,88,29.57,0.2,ENE,12.7,-,0.03,Fog-Snow,Snow,60,2013-03-17 15:53:00
10:01 AM,26.6,23.0,86,29.48,0.2,ENE,11.5,-,0.00,Fog-Snow,Snow,60,2013-03-17 16:01:00
10:53 AM,26.1,24.1,92,29.56,0.2,ENE,11.5,-,0.05,Fog-Snow,Snow,60,2013-03-17 16:53:00
11:22 AM,26.6,24.8,93,29.46,0.2,ENE,10.4,-,0.02,Fog-Snow,Snow,70,2013-03-17 17:22:00
11:30 AM,26.6,24.8,93,29.46,0.2,ENE,10.4,-,0.02,Fog-Snow,Snow,70,2013-03-17 17:30:00
11:39 AM,28.4,24.8,86,29.45,0.2,ENE,10.4,-,0.03,Fog-Snow,Heavy Snow,70,2013-03-17 17:39:00
11:53 AM,28.0,25.0,88,29.55,0.2,ENE,8.1,-,0.04,Fog-Snow,Snow,70,2013-03-17 17:53:00
12:53 PM,28.9,26.1,89,29.55,0.2,North,6.9,-,0.05,Fog-Snow,Snow,360,2013-03-17 18:53:00
1:02 PM,30.2,26.6,86,29.47,0.5,North,8.1,-,0.01,Fog-Snow,Snow,360,2013-03-17 19:02:00
1:11 PM,30.2,26.6,86,29.47,0.5,North,5.8,-,0.01,Fog-Snow,Snow,360,2013-03-17 19:11:00
1:21 PM,30.2,26.6,86,29.48,0.8,North,5.8,-,0.01,Snow,Light Snow,350,2013-03-17 19:21:00
1:28 PM,30.2,26.6,86,29.48,1.0,NW,5.8,-,0.01,Snow,Light Snow,320,2013-03-17 19:28:00
1:38 PM,30.2,26.6,86,29.48,0.8,NW,12.7,-,0.01,Snow,Light Snow,310,2013-03-17 19:38:00
1:53 PM,28.0,24.1,85,29.58,0.2,WNW,17.3,-,0.01,Fog-Snow,Snow,300,2013-03-17 19:53:00
2:11 PM,26.6,23.0,86,29.50,0.2,NW,20.7,-,0.00,Fog-Snow,Snow,320,2013-03-17 20:11:00
2:48 PM,26.6,21.2,80,29.53,0.2,NW,19.6,-,0.00,Fog-Snow,Snow,310,2013-03-17 20:48:00
2:53 PM,26.1,21.9,84,29.63,0.2,NW,20.7,27.6,0.00,Fog-Snow,Snow,320,2013-03-17 20:53:00
3:01 PM,26.6,21.2,80,29.54,0.5,NW,23.0,31.1,0.00,Snow,Snow,320,2013-03-17 21:01:00
3:18 PM,24.8,21.2,86,29.56,0.8,NW,16.1,-,0.00,Snow,Light Snow,320,2013-03-17 21:18:00
3:30 PM,26.6,19.4,74,29.56,1.2,NW,23.0,-,0.00,Snow,Light Snow,310,2013-03-17 21:30:00
3:45 PM,24.8,19.4,80,29.57,1.0,NW,29.9,35.7,0.01,Snow,Light Snow,310,2013-03-17 21:45:00
3:53 PM,25.0,19.0,78,29.68,0.8,NW,25.3,35.7,0.01,Snow,Light Snow,320,2013-03-17 21:53:00
4:01 PM,24.8,17.6,74,29.59,0.8,NW,28.8,38.0,0.00,Snow,Light Snow,320,2013-03-17 22:01:00
4:19 PM,19.4,14.0,80,29.63,0.5,NNW,31.1,43.7,0.00,Snow,Snow,330,2013-03-17 22:19:00
4:42 PM,19.4,12.2,74,29.66,1.2,NW,21.9,38.0,0.00,Snow,Light Snow,320,2013-03-17 22:42:00
4:50 PM,17.6,12.2,79,29.67,1.0,NW,26.5,34.5,0.00,Snow,Light Snow,320,2013-03-17 22:50:00
4:53 PM,18.0,12.0,78,29.77,1.0,NW,26.5,34.5,0.00,Snow,Light Snow,320,2013-03-17 22:53:00
5:00 PM,17.6,10.4,73,29.68,1.2,NW,27.6,33.4,0.00,Snow,Light Snow,320,2013-03-17 23:00:00
5:02 PM,17.6,10.4,73,29.68,1.0,NW,26.5,33.4,0.00,Snow,Light Snow,320,2013-03-17 23:02:00
5:11 PM,15.8,10.4,79,29.70,0.8,NW,24.2,31.1,0.00,Snow,Light Snow,310,2013-03-17 23:11:00
5:28 PM,15.8,10.4,79,29.72,1.2,NW,20.7,35.7,0.00,Snow,Light Snow,310,2013-03-17 23:28:00
5:40 PM,15.8,8.6,73,29.73,2.0,NW,25.3,34.5,0.00,Snow,Light Snow,320,2013-03-17 23:40:00
5:50 PM,15.8,8.6,73,29.74,4.0,NW,23.0,29.9,0.00,,Overcast,310,2013-03-17 23:50:00
5:53 PM,14.0,8.1,77,29.85,4.0,NW,19.6,29.9,0.00,Snow,Light Snow,320,2013-03-17 23:53:00
6:53 PM,12.0,3.9,70,29.91,5.0,NW,21.9,29.9,0.00,,Haze,320,2013-03-18 00:53:00
7:09 PM,10.4,3.2,73,29.81,9.0,NW,21.9,28.8,N/A,,Mostly Cloudy,320,2013-03-18 01:09:00
7:17 PM,10.4,3.2,73,29.81,10.0,NW,17.3,26.5,N/A,,Scattered Clouds,310,2013-03-18 01:17:00
7:28 PM,10.4,1.4,67,29.82,9.0,WNW,24.2,29.9,N/A,,Mostly Cloudy,300,2013-03-18 01:28:00
7:39 PM,8.6,1.4,73,29.82,10.0,WNW,21.9,-,N/A,,Scattered Clouds,300,2013-03-18 01:39:00
7:53 PM,9.0,1.0,70,29.94,9.0,WNW,19.6,28.8,N/A,,Partly Cloudy,300,2013-03-18 01:53:00
8:53 PM,7.0,1.0,77,29.98,3.0,NW,18.4,-,N/A,,Haze,310,2013-03-18 02:53:00
9:33 PM,6.8,-2.2,67,29.89,10.0,WNW,19.6,26.5,N/A,,Mostly Cloudy,300,2013-03-18 03:33:00
9:53 PM,7.0,-2.0,67,30.01,10.0,WNW,21.9,-,N/A,,Overcast,300,2013-03-18 03:53:00
10:53 PM,7.0,-0.9,70,30.03,3.0,WNW,18.4,-,0.00,Snow,Light Snow,300,2013-03-18 04:53:00
11:53 PM,7.0,-0.0,73,30.04,5.0,NW,21.9,-,0.00,Snow,Light Snow,320,2013-03-18 05:53:00